Starlink 2334

operational
NORAD ID: 47792 Int'l Des: 2021-018 Owner: SPXS Country: US Constellation: starlink
LEOCIRCULARSTARLINK_TYPE

Über Starlink 2334

Beschreibung wird geladen...

Live-Position

3D-Globus wird geladen...

Nächste Überflüge

Höhenverlauf

Altitude vs Time

uPlot chart will show altitude changes over time

Zweizeiliger Elementsatz

1 47792U 21018F 25303.13192514 .00000789 00000-0 71828-4 0 9994
2 47792 53.0543 97.7136 0001387 91.8561 268.2587 15.06402309257207
Epoch: 30. Okt. 2025 • Age: 14 hours

Aktueller Status

Höhe 547.7 km
Geschwindigkeit 7.59 km/s
Subsatellitenpunkt 2.10°N, 15.96°W
Startdatum 11. März 2021
Alter 4.6 years
Typ internet

Technische Details

Klassifizierung Payload
Masse 260.00 kg
Trockenmasse 248.00 kg
Gesamtmasse 260.00 kg
Länge 0.20 m
Durchmesser 2.80 m
Spannweite 9.00 m
Form Box + pan
Hersteller SPXS
Bus-Typ Starlink
Phasenstatus In Orbit
Besitzer/Staat SPXS/US

Große Konstellationen

Loading constellations...